Weather History for Las Vegas, NV

Change the Weather History Date:

Thursday, July 11, 2013

  Actual Average Record
Temperature  
Mean Temperature 87 °F 93 °F  
Max Temperature 93 °F 104 °F 116 °F (1959)
Min Temperature 81 °F 81 °F 62 °F (1944)
Degree Days  
Heating Degree Days 0 0  
Month to date heating degree days 0 0  
Since 1 June heating degree days 0 1  
Since 1 July heating degree days 0 0  
Cooling Degree Days 22 28  
Month to date cooling degree days 370 295  
Year to date cooling degree days 1864 1495  
Since 1 June cooling degree days 1174 945  
Growing Degree Days 38 (Base 50)    
Moisture  
Dew Point 57 °F    
Average Humidity 33    
Maximum Humidity 47    
Minimum Humidity 18    
Precipitation  
Precipitation 0.04 in 0.01 in 0.05 in (1989)
Month to date precipitation 0.05 0.09  
Year to date precipitation 0.66 2.17  
Snow  
Snow 0.00 in 0.00 in 0.00 in ()
Month to date snowfall 0.0 0.0  
Since 1 June snowfall 0.0 0.0  
Since 1 July snowfall 0.0 0.0  
Snow Depth 0.00 in    
Sea Level Pressure  
Sea Level Pressure 29.78 in    
Wind  
Wind Speed 8 mph (South)    
Max Wind Speed 23 mph    
Max Gust Speed 31 mph    
Visibility 10 miles    
Events Rain , Thunderstorm    
T = Trace of Precipitation, MM = Missing Value Source: NWS Daily Summary

Daily Weather History Graph

Daily Weather History Graph

Search for Another Location

Airport:

Trip Planner

Search our weather history database for the weather conditions in past years. The results will help you decide how hot, cold, wet, or windy it might be!

Date:

Astronomy

Jul. 11, 2013 Rise Set
Actual Time 5:32 AM PDT 7:59 PM PDT
Civil Twilight 5:03 AM PDT 8:28 PM PDT
Nautical Twilight 4:26 AM PDT 9:05 PM PDT
Astronomical Twilight 3:46 AM PDT 9:45 PM PDT
Moon 8:47 AM PDT (7/11) 9:50 PM PDT (7/11)
Length of Visible Light 15h 25m
Length of Day
14h 26m
Waxing Crescent, 11% of the Moon is Illuminated
Jul 11
Waxing Crescent
Jul 15
First Quarter
Jul 22
Full
Jul 29
Last Quarter
Aug 6
New

Hourly Weather History & Observations

Time (PDT) Temp. Heat Index Dew Point Humidity Pressure Visibility Wind Dir Wind Speed Gust Speed Precip Events Conditions
12:56 AM 93.2 °F 90.8 °F 53.6 °F 26% 29.70 in 10.0 mi SW 8.1 mph - N/A   Mostly Cloudy
1:56 AM 93.2 °F - 44.6 °F 19% 29.69 in 10.0 mi SSW 9.2 mph - N/A   Mostly Cloudy
2:56 AM 91.4 °F - 42.8 °F 18% 29.68 in 10.0 mi South 13.8 mph - N/A   Scattered Clouds
3:56 AM 91.9 °F - 43.0 °F 18% 29.69 in 10.0 mi South 11.5 mph - N/A   Mostly Cloudy
4:56 AM 90.0 °F - 48.9 °F 24% 29.70 in 10.0 mi South 6.9 mph - N/A   Mostly Cloudy
5:05 AM 89.6 °F - 46.4 °F 22% 29.81 in 10.0 mi South 9.2 mph - N/A   Mostly Cloudy
5:56 AM 91.0 °F - 46.0 °F 21% 29.72 in 10.0 mi South 11.5 mph - N/A   Overcast
6:16 AM 91.4 °F - 44.6 °F 20% 29.83 in 10.0 mi South 19.6 mph 25.3 mph N/A   Overcast
6:35 AM 84.2 °F 83.0 °F 55.4 °F 37% 29.85 in 5.0 mi WSW 11.5 mph 27.6 mph 0.01 in Rain Rain
6:38 AM 82.4 °F 82.0 °F 57.2 °F 42% 29.85 in 9.0 mi West 9.2 mph 24.2 mph 0.02 in Rain , Thunderstorm Light Thunderstorms and Rain
6:56 AM 82.0 °F 85.9 °F 70.0 °F 67% 29.75 in 10.0 mi West 6.9 mph - 0.04 in Rain , Thunderstorm Light Thunderstorms and Rain
7:27 AM 84.2 °F 85.0 °F 62.6 °F 48% 29.86 in 10.0 mi SSE 4.6 mph - 0.00 in   Overcast
7:56 AM 86.0 °F 85.4 °F 59.0 °F 40% 29.78 in 10.0 mi South 4.6 mph - 0.00 in   Overcast
8:56 AM 86.0 °F 86.8 °F 63.0 °F 46% 29.80 in 10.0 mi WSW 5.8 mph - 0.00 in Rain Light Rain
9:07 AM 87.8 °F 87.6 °F 60.8 °F 40% 29.89 in 10.0 mi South 9.2 mph - 0.00 in   Mostly Cloudy
9:56 AM 91.0 °F 90.2 °F 59.0 °F 34% 29.80 in 10.0 mi South 13.8 mph 20.7 mph 0.00 in   Mostly Cloudy
10:56 AM 91.9 °F 91.8 °F 61.0 °F 35% 29.80 in 10.0 mi SSE 16.1 mph 25.3 mph N/A   Mostly Cloudy
11:56 AM 89.1 °F 89.3 °F 62.1 °F 40% 29.80 in 10.0 mi South 15.0 mph 26.5 mph N/A   Mostly Cloudy
12:56 PM 90.0 °F 89.1 °F 59.0 °F 35% 29.79 in 10.0 mi South 12.7 mph 23.0 mph N/A   Overcast
1:56 PM 86.0 °F 87.6 °F 64.9 °F 49% 29.80 in 10.0 mi SE 11.5 mph - 0.00 in Rain Light Rain
2:27 PM 87.8 °F 86.5 °F 57.2 °F 35% 29.88 in 10.0 mi SSE 11.5 mph 25.3 mph 0.00 in   Mostly Cloudy
2:56 PM 88.0 °F 87.1 °F 59.0 °F 37% 29.78 in 10.0 mi SSE 10.4 mph 20.7 mph 0.00 in   Mostly Cloudy
3:56 PM 89.1 °F 89.3 °F 62.1 °F 40% 29.77 in 10.0 mi SE 10.4 mph - N/A   Mostly Cloudy
4:56 PM 88.0 °F 87.1 °F 59.0 °F 37% 29.74 in 10.0 mi ENE 5.8 mph - N/A   Overcast
5:56 PM 86.0 °F 85.7 °F 60.1 °F 41% 29.73 in 10.0 mi NE 4.6 mph - N/A   Overcast
6:56 PM 84.9 °F 84.8 °F 60.1 °F 43% 29.78 in 10.0 mi WNW 4.6 mph - N/A   Overcast
7:56 PM 84.0 °F 84.0 °F 60.1 °F 44% 29.78 in 10.0 mi Calm Calm - 0.00 in Rain Light Rain
8:56 PM 84.0 °F 84.4 °F 61.0 °F 46% 29.80 in 10.0 mi West 4.6 mph - 0.00 in   Overcast
9:56 PM 84.0 °F 84.4 °F 61.0 °F 46% 29.81 in 10.0 mi Calm Calm - N/A   Overcast
10:56 PM 82.9 °F 83.3 °F 61.0 °F 47% 29.80 in 10.0 mi Calm Calm - 0.00 in   Overcast
11:56 PM 82.9 °F 83.2 °F 60.1 °F 46% 29.81 in 10.0 mi Calm Calm - 0.00 in   Overcast